{"data":{"norad_id":45446,"epoch":"2026-05-25T02:40:52.925088Z","epoch_age_seconds":65063,"freshness":"FRESH","line1":"1 45446U 20020Y   26145.11172367  .00000498  00000+0  13703-2 0  9999","line2":"2 45446  87.8919  25.6529 0001929  76.9941 283.1402 13.11417238299576","mean_motion":13.11417238,"eccentricity":0.0001929,"inclination_deg":87.8919,"raan_deg":25.6529,"arg_perigee_deg":76.9941,"mean_anomaly_deg":283.1402,"bstar":0.0013703,"rev_number":29957,"period_min":109.80487050758,"perigee_km":1216.2163335879,"apogee_km":1219.146800391,"semimajor_km":7595.8185669895,"source":"CELESTRAK","updated_at":"2026-05-25T13:38:22.345677Z"}}